,,,PA_Meas_PMT16A,,PR_Meas_QMR101_102,,RH_Meas_QMH101,,SR_Meas_QMS101,,TA_Meas_QMH101,,GenWind,,GenWind,
date,time,status,PA,status,PR,status,RH,status,SR,status,TA,status,DirAvg,status,SpdAvg,
2009-08-07, 00:00:04,VALID,1003.7,VALID,0,VALID,91.7831,VALID,0,VALID,25.0663,VALID,24,VALID,0.0730469,
2009-08-07, 00:01:04,VALID,1003.71,VALID,0,VALID,91.3787,VALID,0,VALID,25.1248,VALID,24,VALID,0,
2009-08-07, 00:02:04,VALID,1003.71,VALID,0,VALID,91.0507,VALID,0,VALID,25.1229,VALID,24,VALID,0.101563,
2009-08-07, 00:03:04,VALID,1003.68,VALID,0,VALID,90.0055,VALID,0,VALID,25.1442,VALID,24,VALID,0.0757812,
2009-08-07, 00:04:04,VALID,1003.67,VALID,0,VALID,89.5249,VALID,0,VALID,25.1618,VALID,24,VALID,0.3625,
2009-08-07, 00:05:04,VALID,1003.69,VALID,0,VALID,88.6018,VALID,0,VALID,25.2592,VALID,24,VALID,0,
2009-08-07, 00:06:04,VALID,1003.67,VALID,0,VALID,88.2738,VALID,0,VALID,25.3584,VALID,24,VALID,0,
2009-08-07, 00:07:04,VALID,1003.67,VALID,0,VALID,87.961,VALID,0,VALID,25.3974,VALID,24,VALID,0,
2009-08-07, 00:08:04,VALID,1003.63,VALID,0,VALID,88.1441,VALID,0,VALID,25.4753,VALID,24,VALID,0,
2009-08-07, 00:09:04,VALID,1003.65,VALID,0,VALID,87.6635,VALID,0,VALID,25.4539,VALID,24,VALID,0,
2009-08-07, 00:10:04,VALID,1003.62,VALID,0,VALID,88.1136,VALID,0,VALID,25.5142,VALID,24,VALID,0,
2009-08-07, 00:11:04,VALID,1003.59,VALID,0,VALID,88.495,VALID,0,VALID,25.5142,VALID,24,VALID,0,
2009-08-07, 00:12:04,VALID,1003.58,VALID,0,VALID,89.029,VALID,0,VALID,25.5142,VALID,24,VALID,0,
2009-08-07, 00:13:04,VALID,1003.52,VALID,0,VALID,89.4563,VALID,0.100563,VALID,25.4539,VALID,24,VALID,0,
2009-08-07, 00:14:04,VALID,1003.48,VALID,0,VALID,88.8154,VALID,0.100563,VALID,25.3955,VALID,24,VALID,0.161328,
2009-08-07, 00:15:04,VALID,1003.45,VALID,0,VALID,87.7474,VALID,0,VALID,25.376,VALID,24,VALID,0.434766,
2009-08-07, 00:16:04,VALID,1003.41,VALID,0,VALID,87.8618,VALID,0.100563,VALID,25.4344,VALID,353,VALID,0.269141,
2009-08-07, 00:17:04,VALID,1003.41,VALID,0,VALID,88.64,VALID,0.100563,VALID,25.4539,VALID,353,VALID,0.1375,
2009-08-07, 00:18:04,VALID,1003.41,VALID,0,VALID,87.1447,VALID,0.100563,VALID,25.3955,VALID,7,VALID,0.639063,
2009-08-07, 00:19:04,VALID,1003.38,VALID,0,VALID,87.5719,VALID,0.100563,VALID,25.4539,VALID,344,VALID,0.172656,
2009-08-07, 00:20:04,VALID,1003.33,VALID,0,VALID,87.9,VALID,0,VALID,25.4734,VALID,344,VALID,0.0136719,
2009-08-07, 00:21:04,VALID,1003.3,VALID,0,VALID,87.1371,VALID,0.100563,VALID,25.4539,VALID,344,VALID,0.480469,
2009-08-07, 00:22:04,VALID,1003.34,VALID,0,VALID,87.0989,VALID,0,VALID,25.4734,VALID,344,VALID,0.367969,
2009-08-07, 00:23:04,VALID,1003.31,VALID,0,VALID,87.3965,VALID,0.100563,VALID,25.4928,VALID,344,VALID,0.33125,
2009-08-07, 00:24:04,VALID,1003.28,VALID,0,VALID,87.1218,VALID,0.100563,VALID,25.4928,VALID,344,VALID,0.202344,
2009-08-07, 00:25:04,VALID,1003.26,VALID,0,VALID,86.3284,VALID,0,VALID,25.5123,VALID,357,VALID,0.0855469,
2009-08-07, 00:26:04,VALID,1003.28,VALID,0,VALID,87.6558,VALID,0.100563,VALID,25.5532,VALID,357,VALID,0.122266,
2009-08-07, 00:27:04,VALID,1003.25,VALID,0,VALID,87.5643,VALID,0,VALID,25.4928,VALID,65,VALID,0.305078,
2009-08-07, 00:28:04,VALID,1003.24,VALID,0,VALID,87.0989,VALID,0.100563,VALID,25.4539,VALID,65,VALID,0.195313,
2009-08-07, 00:29:04,VALID,1003.24,VALID,0,VALID,87.1218,VALID,0.100563,VALID,25.4539,VALID,66,VALID,0.305859,
2009-08-07, 00:30:04,VALID,1003.26,VALID,0,VALID,87.1981,VALID,0.100563,VALID,25.4539,VALID,66,VALID,0.101172,
2009-08-07, 00:31:04,VALID,1003.2,VALID,0,VALID,86.4428,VALID,0.100563,VALID,25.3935,VALID,66,VALID,0.198437,
2009-08-07, 00:32:04,VALID,1003.2,VALID,0,VALID,85.9241,VALID,0.100563,VALID,25.4344,VALID,67,VALID,0.185937,
2009-08-07, 00:33:04,VALID,1003.18,VALID,0,VALID,85.6266,VALID,0.100563,VALID,25.4344,VALID,67,VALID,0.0519531,
2009-08-07, 00:34:04,VALID,1003.19,VALID,0,VALID,85.4663,VALID,0.100563,VALID,25.452,VALID,67,VALID,0.213672,
2009-08-07, 00:35:04,VALID,1003.16,VALID,0,VALID,85.3977,VALID,0.100563,VALID,25.4714,VALID,62,VALID,0,
2009-08-07, 00:36:04,VALID,1003.17,VALID,0,VALID,85.1688,VALID,0.100563,VALID,25.5318,VALID,62,VALID,0,
2009-08-07, 00:37:04,VALID,1003.19,VALID,0,VALID,84.5127,VALID,0.100563,VALID,25.5707,VALID,62,VALID,0.488281,
2009-08-07, 00:38:04,VALID,1003.15,VALID,0,VALID,84.4899,VALID,0,VALID,25.6292,VALID,41,VALID,0.411719,
2009-08-07, 00:39:04,VALID,1003.17,VALID,0,VALID,84.0855,VALID,0.100563,VALID,25.6681,VALID,41,VALID,0.218359,
2009-08-07, 00:40:04,VALID,1003.19,VALID,0,VALID,84.4746,VALID,0.100563,VALID,25.6681,VALID,41,VALID,0.30625,
2009-08-07, 00:41:04,VALID,1003.18,VALID,0,VALID,84.2,VALID,0.100563,VALID,25.6662,VALID,77,VALID,0.561328,
2009-08-07, 00:42:04,VALID,1003.16,VALID,0,VALID,84.0245,VALID,0,VALID,25.6876,VALID,66,VALID,0.0761719,
2009-08-07, 00:43:04,VALID,1003.15,VALID,0,VALID,83.9482,VALID,0,VALID,25.6895,VALID,66,VALID,0.00429688,
2009-08-07, 00:44:04,VALID,1003.13,VALID,0,VALID,85.2299,VALID,0,VALID,25.6895,VALID,66,VALID,0.248437,
2009-08-07, 00:45:04,VALID,1003.1,VALID,0,VALID,84.8026,VALID,0,VALID,25.6525,VALID,15,VALID,0.307422,
2009-08-07, 00:46:04,VALID,1003.1,VALID,0,VALID,84.5967,VALID,0,VALID,25.6525,VALID,15,VALID,0.497266,
2009-08-07, 00:47:04,VALID,1003.09,VALID,0,VALID,84.0703,VALID,0,VALID,25.6116,VALID,13,VALID,0.620703,
2009-08-07, 00:48:04,VALID,1003.06,VALID,0,VALID,84.0016,VALID,0,VALID,25.6311,VALID,360,VALID,0.384766,
2009-08-07, 00:49:04,VALID,1003.05,VALID,0,VALID,84.2839,VALID,0,VALID,25.6311,VALID,360,VALID,0.452344,
2009-08-07, 00:50:04,VALID,1003.03,VALID,0,VALID,84.2076,VALID,0,VALID,25.6116,VALID,9,VALID,1.21445,
2009-08-07, 00:51:04,VALID,1003.01,VALID,0,VALID,84.6348,VALID,0,VALID,25.6136,VALID,26,VALID,0.771875,
2009-08-07, 00:52:04,VALID,1003.01,VALID,0,VALID,84.8789,VALID,0,VALID,25.5727,VALID,33,VALID,0.277734,
2009-08-07, 00:53:04,VALID,1003.01,VALID,0,VALID,84.9705,VALID,0,VALID,25.5532,VALID,28,VALID,0.643359,
2009-08-07, 00:54:04,VALID,1003.01,VALID,0,VALID,85.1459,VALID,0,VALID,25.5142,VALID,25,VALID,0.725,
2009-08-07, 00:55:04,VALID,1003,VALID,0,VALID,84.9247,VALID,0,VALID,25.5162,VALID,29,VALID,0.664844,
2009-08-07, 00:56:04,VALID,1002.97,VALID,0,VALID,84.6119,VALID,0,VALID,25.4948,VALID,46,VALID,1.28047,
2009-08-07, 00:57:04,VALID,1002.95,VALID,0,VALID,84.322,VALID,0,VALID,25.5337,VALID,38,VALID,0.758984,
2009-08-07, 00:58:04,VALID,1002.94,VALID,0,VALID,84.6195,VALID,0,VALID,25.5318,VALID,33,VALID,0.360156,
2009-08-07, 00:59:04,VALID,1002.92,VALID,0,VALID,84.6501,VALID,0,VALID,25.5123,VALID,35,VALID,0.0191406,
2009-08-07, 01:00:04,VALID,1002.89,VALID,0,VALID,84.2457,VALID,0.100563,VALID,25.4928,VALID,33,VALID,0.783203,
2009-08-07, 01:01:04,VALID,1002.88,VALID,0,VALID,84.6729,VALID,0,VALID,25.5123,VALID,47,VALID,0.225,
2009-08-07, 01:02:04,VALID,1002.87,VALID,0,VALID,84.7111,VALID,0.100563,VALID,25.4928,VALID,47,VALID,0.003125,
2009-08-07, 01:03:04,VALID,1002.86,VALID,0,VALID,84.5433,VALID,0,VALID,25.4539,VALID,47,VALID,0.244531,
2009-08-07, 01:04:04,VALID,1002.86,VALID,0,VALID,84.261,VALID,0,VALID,25.4539,VALID,47,VALID,0,
2009-08-07, 01:05:04,VALID,1002.84,VALID,0,VALID,84.7874,VALID,0,VALID,25.4344,VALID,47,VALID,0,
2009-08-07, 01:06:04,VALID,1002.86,VALID,0,VALID,84.7721,VALID,0,VALID,25.4169,VALID,47,VALID,0,
2009-08-07, 01:07:04,VALID,1002.86,VALID,0,VALID,84.8637,VALID,0,VALID,25.3955,VALID,47,VALID,0,
2009-08-07, 01:08:04,VALID,1002.87,VALID,0,VALID,85.7257,VALID,0,VALID,25.3741,VALID,47,VALID,0,
2009-08-07, 01:09:04,VALID,1002.88,VALID,0,VALID,85.9012,VALID,0.100563,VALID,25.3565,VALID,47,VALID,0,
2009-08-07, 01:10:04,VALID,1002.87,VALID,0,VALID,85.7715,VALID,0,VALID,25.3195,VALID,47,VALID,0.271875,
2009-08-07, 01:11:04,VALID,1002.88,VALID,0,VALID,85.3901,VALID,0.100563,VALID,25.337,VALID,143,VALID,0.116016,
2009-08-07, 01:12:04,VALID,1002.9,VALID,0,VALID,84.7187,VALID,0,VALID,25.337,VALID,143,VALID,0,
2009-08-07, 01:13:04,VALID,1002.88,VALID,0,VALID,84.94,VALID,0,VALID,25.3779,VALID,143,VALID,0,
2009-08-07, 01:14:04,VALID,1002.91,VALID,0,VALID,85.7257,VALID,0.100563,VALID,25.3779,VALID,143,VALID,0.00117188,
2009-08-07, 01:15:04,VALID,1002.92,VALID,0,VALID,85.7028,VALID,0,VALID,25.3176,VALID,143,VALID,0.195703,
2009-08-07, 01:16:04,VALID,1002.94,VALID,0,VALID,86.0309,VALID,0,VALID,25.2786,VALID,143,VALID,0.0628906,
2009-08-07, 01:17:04,VALID,1002.97,VALID,0,VALID,85.8325,VALID,0,VALID,25.2397,VALID,143,VALID,0.0824219,
2009-08-07, 01:18:04,VALID,1002.99,VALID,0,VALID,86.0156,VALID,0.100563,VALID,25.2202,VALID,143,VALID,0,
2009-08-07, 01:19:04,VALID,1003.03,VALID,0,VALID,86.2826,VALID,0,VALID,25.2007,VALID,143,VALID,0.340625,
2009-08-07, 01:20:04,VALID,1003.05,VALID,0,VALID,86.4047,VALID,0,VALID,25.1423,VALID,105,VALID,0.547656,
2009-08-07, 01:21:04,VALID,1003.11,VALID,0,VALID,86.9387,VALID,0,VALID,25.1637,VALID,59,VALID,0.282813,
2009-08-07, 01:22:04,VALID,1003.09,VALID,0,VALID,87.1981,VALID,0,VALID,25.0663,VALID,59,VALID,0.208594,
2009-08-07, 01:23:04,VALID,1003.1,VALID,0,VALID,87.4575,VALID,0,VALID,25.0274,VALID,59,VALID,0.0496094,
2009-08-07, 01:24:04,VALID,1003.12,VALID,0,VALID,87.7092,VALID,0,VALID,24.9866,VALID,69,VALID,0.477734,
2009-08-07, 01:25:04,VALID,1003.15,VALID,0,VALID,87.7321,VALID,0,VALID,24.9866,VALID,101,VALID,0.645312,
2009-08-07, 01:26:04,VALID,1003.13,VALID,0,VALID,87.8694,VALID,0,VALID,25.0255,VALID,106,VALID,0.0976563,
2009-08-07, 01:27:04,VALID,1003.14,VALID,0,VALID,87.7703,VALID,0,VALID,25.0255,VALID,64,VALID,0.594141,
2009-08-07, 01:28:04,VALID,1003.11,VALID,0,VALID,87.5033,VALID,0,VALID,25.1053,VALID,14,VALID,1.32344,
2009-08-07, 01:29:04,VALID,1003.13,VALID,0,VALID,87.1523,VALID,0,VALID,25.1618,VALID,19,VALID,0.521094,
2009-08-07, 01:30:04,VALID,1003.15,VALID,0,VALID,86.9998,VALID,0.100563,VALID,25.2007,VALID,19,VALID,0.294922,
2009-08-07, 01:31:04,VALID,1003.15,VALID,0,VALID,86.9082,VALID,0,VALID,25.2007,VALID,19,VALID,0,
2009-08-07, 01:32:04,VALID,1003.14,VALID,0,VALID,87.015,VALID,0,VALID,25.2202,VALID,19,VALID,0.478906,
2009-08-07, 01:33:04,VALID,1003.16,VALID,0,VALID,86.9311,VALID,0,VALID,25.2202,VALID,19,VALID,0.366797,
2009-08-07, 01:34:04,VALID,1003.18,VALID,0,VALID,87.343,VALID,0.100563,VALID,25.1813,VALID,19,VALID,0.339063,
2009-08-07, 01:35:04,VALID,1003.17,VALID,0,VALID,87.6329,VALID,0,VALID,25.1229,VALID,19,VALID,0.504687,
2009-08-07, 01:36:04,VALID,1003.15,VALID,0,VALID,88.0831,VALID,0,VALID,25.0255,VALID,19,VALID,0,
2009-08-07, 01:37:04,VALID,1003.11,VALID,0,VALID,88.2051,VALID,0.100563,VALID,25.0079,VALID,328,VALID,0.453125,
2009-08-07, 01:38:04,VALID,1003.1,VALID,0,VALID,88.3119,VALID,0,VALID,24.9671,VALID,327,VALID,0.144531,
2009-08-07, 01:39:04,VALID,1003.08,VALID,0,VALID,88.4264,VALID,0.100563,VALID,24.9476,VALID,327,VALID,0.111719,
2009-08-07, 01:40:04,VALID,1003.08,VALID,0,VALID,88.6247,VALID,0,VALID,24.9282,VALID,327,VALID,0,
2009-08-07, 01:41:04,VALID,1003.06,VALID,0,VALID,88.6018,VALID,0.100563,VALID,24.9087,VALID,327,VALID,0.301562,
2009-08-07, 01:42:04,VALID,1003.06,VALID,0,VALID,88.5484,VALID,0.100563,VALID,24.9282,VALID,327,VALID,0,
2009-08-07, 01:43:04,VALID,1003.1,VALID,0,VALID,88.4187,VALID,0,VALID,24.9671,VALID,327,VALID,0,
2009-08-07, 01:44:04,VALID,1003.09,VALID,0,VALID,88.556,VALID,0,VALID,24.9457,VALID,327,VALID,0.194141,
2009-08-07, 01:45:04,VALID,1003.09,VALID,0,VALID,88.9146,VALID,0,VALID,24.9087,VALID,327,VALID,0.385547,
2009-08-07, 01:46:04,VALID,1003.1,VALID,0,VALID,89.0214,VALID,0,VALID,24.8697,VALID,327,VALID,0.487109,
2009-08-07, 01:47:04,VALID,1003.09,VALID,0,VALID,89.3876,VALID,0,VALID,24.8522,VALID,341,VALID,0.399609,
2009-08-07, 01:48:04,VALID,1003.07,VALID,0,VALID,89.2579,VALID,0.100563,VALID,24.7724,VALID,57,VALID,0.26875,
2009-08-07, 01:49:04,VALID,1003.08,VALID,0,VALID,89.502,VALID,0,VALID,24.714,VALID,57,VALID,0.524219,
2009-08-07, 01:50:04,VALID,1003.09,VALID,0,VALID,89.7614,VALID,0,VALID,24.714,VALID,106,VALID,0.603125,
2009-08-07, 01:51:04,VALID,1003.07,VALID,0,VALID,90.0437,VALID,0,VALID,24.714,VALID,128,VALID,0.501953,
2009-08-07, 01:52:04,VALID,1003.04,VALID,0,VALID,90.3259,VALID,0,VALID,24.714,VALID,128,VALID,0.128125,
2009-08-07, 01:53:04,VALID,1003.03,VALID,0,VALID,90.3259,VALID,0.100563,VALID,24.6556,VALID,128,VALID,0.389453,
2009-08-07, 01:54:04,VALID,1003.03,VALID,0,VALID,90.4633,VALID,0,VALID,24.5796,VALID,128,VALID,0.311719,
2009-08-07, 01:55:04,VALID,1003.03,VALID,0,VALID,90.6769,VALID,0,VALID,24.4998,VALID,128,VALID,0.23125,
2009-08-07, 01:56:04,VALID,1003.05,VALID,0,VALID,90.9134,VALID,0,VALID,24.4609,VALID,128,VALID,0.141406,
2009-08-07, 01:57:04,VALID,1003.03,VALID,0,VALID,91.0583,VALID,0,VALID,24.4025,VALID,128,VALID,0.242578,
2009-08-07, 01:58:04,VALID,1003.05,VALID,0,VALID,91.249,VALID,0,VALID,24.3654,VALID,128,VALID,0.137891,
2009-08-07, 01:59:04,VALID,1003.08,VALID,0,VALID,91.4779,VALID,0,VALID,24.3478,VALID,128,VALID,0.270703,
2009-08-07, 02:00:04,VALID,1003.09,VALID,0,VALID,91.6839,VALID,0,VALID,24.2875,VALID,128,VALID,0.407031,
2009-08-07, 02:01:04,VALID,1003.09,VALID,0,VALID,91.8746,VALID,0,VALID,24.2486,VALID,109,VALID,0.398047,
2009-08-07, 02:02:04,VALID,1003.09,VALID,0,VALID,92.0196,VALID,0,VALID,24.2097,VALID,56,VALID,0.607031,
2009-08-07, 02:03:04,VALID,1003.09,VALID,0,VALID,92.2408,VALID,0,VALID,24.1902,VALID,54,VALID,0.555859,
2009-08-07, 02:04:04,VALID,1003.09,VALID,0,VALID,92.4391,VALID,0,VALID,24.1902,VALID,54,VALID,0.520703,
2009-08-07, 02:05:04,VALID,1003.09,VALID,0,VALID,92.6604,VALID,0,VALID,24.1902,VALID,54,VALID,0.420703,
2009-08-07, 02:06:04,VALID,1003.08,VALID,0,VALID,92.7824,VALID,0,VALID,24.1707,VALID,54,VALID,0.370313,
2009-08-07, 02:07:04,VALID,1003.04,VALID,0,VALID,92.9045,VALID,0,VALID,24.1494,VALID,54,VALID,0.207031,
2009-08-07, 02:08:04,VALID,1003.02,VALID,0,VALID,93.0113,VALID,0,VALID,24.1513,VALID,54,VALID,0.225391,
2009-08-07, 02:09:04,VALID,1003.03,VALID,0,VALID,93.0342,VALID,0,VALID,24.1513,VALID,54,VALID,0.441016,
2009-08-07, 02:10:04,VALID,1003,VALID,0,VALID,93.08,VALID,0,VALID,24.1123,VALID,54,VALID,0.0367187,
2009-08-07, 02:11:04,VALID,1003.01,VALID,0,VALID,93.1257,VALID,0,VALID,24.1123,VALID,54,VALID,0,
2009-08-07, 02:12:04,VALID,1003.01,VALID,0,VALID,93.2173,VALID,0,VALID,24.1336,VALID,54,VALID,0,
2009-08-07, 02:13:04,VALID,1002.99,VALID,0,VALID,93.2631,VALID,0,VALID,24.1318,VALID,54,VALID,0,
2009-08-07, 02:14:04,VALID,1003,VALID,0,VALID,93.2936,VALID,0,VALID,24.091,VALID,54,VALID,0,
2009-08-07, 02:15:04,VALID,1003.02,VALID,0,VALID,93.3394,VALID,0,VALID,24.0697,VALID,54,VALID,0,
2009-08-07, 02:16:04,VALID,1003.03,VALID,0,VALID,93.4004,VALID,0,VALID,24.0697,VALID,54,VALID,0,
2009-08-07, 02:17:04,VALID,1003.06,VALID,0,VALID,93.4385,VALID,0,VALID,24.091,VALID,54,VALID,0,
2009-08-07, 02:18:04,VALID,1003.06,VALID,0,VALID,93.4996,VALID,0.100563,VALID,24.1105,VALID,54,VALID,0,
2009-08-07, 02:19:04,VALID,1003.04,VALID,0,VALID,93.553,VALID,0,VALID,24.1105,VALID,54,VALID,0,
2009-08-07, 02:20:04,VALID,1003.03,VALID,0,VALID,93.6216,VALID,0.100563,VALID,24.13,VALID,54,VALID,0,
2009-08-07, 02:21:04,VALID,1003.04,VALID,0,VALID,93.6826,VALID,0,VALID,24.1689,VALID,54,VALID,0.275391,
2009-08-07, 02:22:04,VALID,1003.04,VALID,0,VALID,93.6521,VALID,0.100563,VALID,24.1884,VALID,54,VALID,0.295703,
2009-08-07, 02:23:04,VALID,1003,VALID,0,VALID,93.6369,VALID,0,VALID,24.1884,VALID,54,VALID,0.0902344,
2009-08-07, 02:24:04,VALID,1003.02,VALID,0,VALID,93.7589,VALID,0,VALID,24.2468,VALID,29,VALID,0.600391,
2009-08-07, 02:25:04,VALID,1002.97,VALID,0,VALID,93.6826,VALID,0,VALID,24.3246,VALID,29,VALID,0.122656,
2009-08-07, 02:26:04,VALID,1002.98,VALID,0,VALID,93.5148,VALID,0,VALID,24.383,VALID,29,VALID,0.200391,
2009-08-07, 02:27:04,VALID,1002.98,VALID,0,VALID,93.3241,VALID,0,VALID,24.4006,VALID,29,VALID,0.307813,
2009-08-07, 02:28:04,VALID,1002.99,VALID,0,VALID,93.1868,VALID,0,VALID,24.4628,VALID,29,VALID,0.0976563,
2009-08-07, 02:29:04,VALID,1002.96,VALID,0,VALID,93.1181,VALID,0,VALID,24.4822,VALID,29,VALID,0.0148437,
2009-08-07, 02:30:04,VALID,1002.96,VALID,0,VALID,93.0037,VALID,0,VALID,24.4998,VALID,29,VALID,0,
2009-08-07, 02:31:04,VALID,1002.94,VALID,0,VALID,92.874,VALID,0,VALID,24.5406,VALID,29,VALID,0,
2009-08-07, 02:32:04,VALID,1002.94,VALID,0,VALID,92.7443,VALID,0,VALID,24.5406,VALID,29,VALID,0,
2009-08-07, 02:33:04,VALID,1002.9,VALID,0,VALID,92.6299,VALID,0,VALID,24.5601,VALID,29,VALID,0,
2009-08-07, 02:34:04,VALID,1002.92,VALID,0,VALID,92.5536,VALID,0,VALID,24.5601,VALID,29,VALID,0,
2009-08-07, 02:35:04,VALID,1002.88,VALID,0,VALID,92.4697,VALID,0,VALID,24.5601,VALID,29,VALID,0,
2009-08-07, 02:36:04,VALID,1002.88,VALID,0,VALID,92.3705,VALID,0,VALID,24.599,VALID,29,VALID,0.434766,
2009-08-07, 02:37:04,VALID,1002.86,VALID,0,VALID,92.3323,VALID,0,VALID,24.5796,VALID,29,VALID,0.493359,
2009-08-07, 02:38:04,VALID,1002.83,VALID,0,VALID,92.3552,VALID,0,VALID,24.5406,VALID,29,VALID,0.353516,
2009-08-07, 02:39:04,VALID,1002.8,VALID,0,VALID,92.401,VALID,0,VALID,24.5017,VALID,29,VALID,0.401563,
2009-08-07, 02:40:04,VALID,1002.81,VALID,0,VALID,92.4773,VALID,0,VALID,24.4822,VALID,29,VALID,0.485547,
2009-08-07, 02:41:05,VALID,1002.78,VALID,0,VALID,92.5841,VALID,0,VALID,24.4414,VALID,29,VALID,0.445703,
2009-08-07, 02:42:05,VALID,1002.77,VALID,0,VALID,92.7138,VALID,0,VALID,24.4043,VALID,29,VALID,0.399609,
2009-08-07, 02:43:05,VALID,1002.76,VALID,0,VALID,92.8358,VALID,0,VALID,24.4062,VALID,29,VALID,0.325391,
2009-08-07, 02:44:05,VALID,1002.78,VALID,0,VALID,92.9426,VALID,0,VALID,24.3654,VALID,29,VALID,0.230078,
2009-08-07, 02:45:05,VALID,1002.81,VALID,0,VALID,93.0342,VALID,0,VALID,24.3459,VALID,29,VALID,0.572266,
2009-08-07, 02:46:05,VALID,1002.83,VALID,0,VALID,93.141,VALID,0,VALID,24.3246,VALID,29,VALID,0.525391,
2009-08-07, 02:47:05,VALID,1002.81,VALID,0,VALID,93.2325,VALID,0,VALID,24.3265,VALID,29,VALID,0.378906,
2009-08-07, 02:48:05,VALID,1002.82,VALID,0,VALID,93.3165,VALID,0,VALID,24.307,VALID,29,VALID,0.225,
2009-08-07, 02:49:05,VALID,1002.78,VALID,0,VALID,93.3928,VALID,0,VALID,24.3088,VALID,29,VALID,0.223047,
2009-08-07, 02:50:05,VALID,1002.8,VALID,0,VALID,93.4996,VALID,0,VALID,24.3088,VALID,29,VALID,0.224609,
2009-08-07, 02:51:05,VALID,1002.74,VALID,0,VALID,93.5682,VALID,0,VALID,24.3088,VALID,29,VALID,0.189844,
2009-08-07, 02:52:05,VALID,1002.75,VALID,0,VALID,93.6369,VALID,0,VALID,24.2875,VALID,29,VALID,0.174219,
2009-08-07, 02:53:05,VALID,1002.73,VALID,0,VALID,93.7361,VALID,0,VALID,24.2875,VALID,29,VALID,0.256641,
2009-08-07, 02:54:05,VALID,1002.78,VALID,0,VALID,93.7513,VALID,0,VALID,24.2875,VALID,29,VALID,0.034375,
2009-08-07, 02:55:05,VALID,1002.77,VALID,0,VALID,93.7818,VALID,0,VALID,24.2681,VALID,29,VALID,0,
2009-08-07, 02:56:05,VALID,1002.76,VALID,0,VALID,93.7742,VALID,0,VALID,24.2681,VALID,29,VALID,0,
2009-08-07, 02:57:05,VALID,1002.73,VALID,0,VALID,93.8123,VALID,0,VALID,24.2486,VALID,29,VALID,0,
2009-08-07, 02:58:05,VALID,1002.75,VALID,0,VALID,93.8276,VALID,0,VALID,24.2468,VALID,29,VALID,0,
2009-08-07, 02:59:05,VALID,1002.7,VALID,0,VALID,93.8505,VALID,0,VALID,24.2273,VALID,29,VALID,0,
2009-08-07, 03:00:05,VALID,1002.71,VALID,0,VALID,93.8657,VALID,0,VALID,24.2273,VALID,29,VALID,0,
2009-08-07, 03:01:05,VALID,1002.72,VALID,0,VALID,93.8581,VALID,0,VALID,24.2097,VALID,29,VALID,0,
2009-08-07, 03:02:05,VALID,1002.71,VALID,0,VALID,93.9268,VALID,0,VALID,24.1884,VALID,29,VALID,0,
2009-08-07, 03:03:05,VALID,1002.69,VALID,0,VALID,93.9878,VALID,0,VALID,24.2078,VALID,29,VALID,0.566016,
2009-08-07, 03:04:05,VALID,1002.67,VALID,0,VALID,94.0565,VALID,0.100563,VALID,24.2078,VALID,29,VALID,0.498047,
2009-08-07, 03:05:05,VALID,1002.65,VALID,0,VALID,94.0946,VALID,0.100563,VALID,24.2078,VALID,29,VALID,0.507422,
2009-08-07, 03:06:05,VALID,1002.64,VALID,0,VALID,94.1175,VALID,0,VALID,24.2078,VALID,29,VALID,0.415234,
2009-08-07, 03:07:05,VALID,1002.59,VALID,0,VALID,94.1556,VALID,0,VALID,24.1884,VALID,29,VALID,0.417969,
2009-08-07, 03:08:05,VALID,1002.58,VALID,0,VALID,94.1938,VALID,0,VALID,24.1671,VALID,29,VALID,0.286328,
2009-08-07, 03:09:05,VALID,1002.57,VALID,0,VALID,94.2548,VALID,0.100563,VALID,24.2078,VALID,29,VALID,0.344531,
2009-08-07, 03:10:05,VALID,1002.56,VALID,0,VALID,94.3082,VALID,0.100563,VALID,24.206,VALID,29,VALID,0.361328,
2009-08-07, 03:11:05,VALID,1002.6,VALID,0,VALID,94.3769,VALID,0.100563,VALID,24.2273,VALID,29,VALID,0.402344,
2009-08-07, 03:12:05,VALID,1002.56,VALID,0,VALID,94.3769,VALID,0,VALID,24.2486,VALID,29,VALID,0.237109,
2009-08-07, 03:13:05,VALID,1002.51,VALID,0,VALID,94.354,VALID,0,VALID,24.2097,VALID,29,VALID,0.262109,
2009-08-07, 03:14:05,VALID,1002.52,VALID,0,VALID,94.354,VALID,0,VALID,24.2097,VALID,29,VALID,0.327344,
2009-08-07, 03:15:05,VALID,1002.49,VALID,0,VALID,94.3616,VALID,0,VALID,24.1902,VALID,29,VALID,0.0425781,
2009-08-07, 03:16:05,VALID,1002.49,VALID,0,VALID,94.3387,VALID,0,VALID,24.1707,VALID,29,VALID,0.0664063,
2009-08-07, 03:17:05,VALID,1002.49,VALID,0,VALID,94.3387,VALID,0,VALID,24.1707,VALID,29,VALID,0.180078,
2009-08-07, 03:18:05,VALID,1002.49,VALID,0,VALID,94.3692,VALID,0,VALID,24.1726,VALID,29,VALID,0,
2009-08-07, 03:19:05,VALID,1002.54,VALID,0,VALID,94.3998,VALID,0,VALID,24.1513,VALID,29,VALID,0,
2009-08-07, 03:20:05,VALID,1002.54,VALID,0,VALID,94.3921,VALID,0,VALID,24.1318,VALID,29,VALID,0,
2009-08-07, 03:21:05,VALID,1002.59,VALID,0,VALID,94.4227,VALID,0,VALID,24.1123,VALID,29,VALID,0,
2009-08-07, 03:22:05,VALID,1002.58,VALID,0,VALID,94.4303,VALID,0,VALID,24.1123,VALID,29,VALID,0,
2009-08-07, 03:23:05,VALID,1002.6,VALID,0,VALID,94.4684,VALID,0,VALID,24.0929,VALID,29,VALID,0,
2009-08-07, 03:24:05,VALID,1002.54,VALID,0,VALID,94.4913,VALID,0,VALID,24.0716,VALID,29,VALID,0,
2009-08-07, 03:25:05,VALID,1002.56,VALID,0,VALID,94.5371,VALID,0,VALID,24.0521,VALID,29,VALID,0,
2009-08-07, 03:26:05,VALID,1002.55,VALID,0,VALID,94.5523,VALID,0,VALID,24.0539,VALID,29,VALID,0,
2009-08-07, 03:27:05,VALID,1002.52,VALID,0,VALID,94.5447,VALID,0,VALID,24.0345,VALID,29,VALID,0,
2009-08-07, 03:28:05,VALID,1002.52,VALID,0,VALID,94.5676,VALID,0,VALID,24.0345,VALID,29,VALID,0,
2009-08-07, 03:29:05,VALID,1002.49,VALID,0,VALID,94.5905,VALID,0,VALID,24.0345,VALID,29,VALID,0,
2009-08-07, 03:30:05,VALID,1002.47,VALID,0,VALID,94.6591,VALID,0,VALID,24.0132,VALID,29,VALID,0,
2009-08-07, 03:31:05,VALID,1002.49,VALID,0,VALID,94.6897,VALID,0,VALID,24.0132,VALID,29,VALID,0,
2009-08-07, 03:32:05,VALID,1002.46,VALID,0,VALID,94.7125,VALID,0,VALID,24.015,VALID,29,VALID,0,
2009-08-07, 03:33:05,VALID,1002.45,VALID,0,VALID,94.6897,VALID,0,VALID,24.015,VALID,29,VALID,0,
2009-08-07, 03:34:05,VALID,1002.42,VALID,0,VALID,94.7125,VALID,0,VALID,23.9955,VALID,29,VALID,0,
2009-08-07, 03:35:05,VALID,1002.41,VALID,0,VALID,94.7431,VALID,0,VALID,23.9937,VALID,29,VALID,0,
2009-08-07, 03:36:05,VALID,1002.38,VALID,0,VALID,94.7812,VALID,0,VALID,24.0345,VALID,29,VALID,0,
2009-08-07, 03:37:05,VALID,1002.4,VALID,0,VALID,94.827,VALID,0,VALID,24.0539,VALID,29,VALID,0,
2009-08-07, 03:38:05,VALID,1002.36,VALID,0,VALID,94.8346,VALID,0,VALID,24.0734,VALID,29,VALID,0,
2009-08-07, 03:39:05,VALID,1002.38,VALID,0,VALID,94.8575,VALID,0,VALID,24.0734,VALID,29,VALID,0,
2009-08-07, 03:40:05,VALID,1002.39,VALID,0,VALID,94.8804,VALID,0,VALID,24.0734,VALID,29,VALID,0,
2009-08-07, 03:41:05,VALID,1002.38,VALID,0,VALID,94.8956,VALID,0,VALID,24.0539,VALID,29,VALID,0,
2009-08-07, 03:42:05,VALID,1002.4,VALID,0,VALID,94.9109,VALID,0,VALID,24.0734,VALID,29,VALID,0,
2009-08-07, 03:43:05,VALID,1002.39,VALID,0,VALID,94.9338,VALID,0,VALID,24.0521,VALID,29,VALID,0,
2009-08-07, 03:44:05,VALID,1002.37,VALID,0,VALID,94.9262,VALID,0,VALID,24.0539,VALID,29,VALID,0,
2009-08-07, 03:45:05,VALID,1002.4,VALID,0,VALID,94.9109,VALID,0,VALID,24.0539,VALID,29,VALID,0,
2009-08-07, 03:46:05,VALID,1002.35,VALID,0,VALID,94.9414,VALID,0,VALID,24.0539,VALID,29,VALID,0,
2009-08-07, 03:47:05,VALID,1002.35,VALID,0,VALID,94.9338,VALID,0,VALID,24.0716,VALID,29,VALID,0,
2009-08-07, 03:48:05,VALID,1002.36,VALID,0,VALID,94.9643,VALID,0,VALID,24.0716,VALID,37,VALID,0.325,